Flag for U.S.A. Weather past 2 weeks in Augusta, Maine, U.S.A.

Now
16 °F

Clear.


Feels Like: 4 °F
Forecast: 8 / 31 °F
Wind: 10 mph from Northwest

Location: Augusta State Airport

Current Time: Jan 25, 2015 at 5:48:44 PM

Latest Report: Jan 25, 2015 at 4:53 PM


Visibility: 10 mi

Pressure: 29.75 "Hg

Humidity: 47%

Dew point: -1 °F

Location of AugustaLocation

Historic Weather in Augusta — Graph

°F

Augusta temperature yesterday

Maximum temperature yesterday: 28 °F (at 11:53 PM)
Minimum temperature yesterday: 19 °F (at 4:53 AM)
Average temperature yesterday: 24 °F

Past Weeks' High & Low Weather Summary

 TemperatureHumidityPressure
High47 °F (Jan 19, 1:53 AM)100% (Jan 18, 4:53 PM)30.68 "Hg (Jan 18, 4:53 PM)
Low-8 °F (Jan 14, 7:53 AM)25% (Jan 17, 1:53 PM)29.13 "Hg (Jan 24, 9:53 PM)
Average20 °F64%30.04 "Hg
* Reported Jan 10 4:53 PM — Jan 25 4:53 PM, Augusta, Weather by CustomWeather, © 2014

Note: Actual official high and low records may vary slightly from our data, if they occured in-between our weather recording intervals... More about our weather records

Advertising

Augusta weather history for previous 24 hours

 ConditionsComfort  
Time TempWeatherWind HumidityBarometerVisibility
4:53 PM
Jan 25
16 °FClear.10 mph47%29.75 "Hg10 mi
3:53 PM20 °FSunny.17 mph43%29.69 "Hg10 mi
2:53 PM22 °FSunny.18 mph42%29.64 "Hg9 mi
1:53 PM25 °FSunny.13 mph42%29.59 "Hg10 mi
12:53 PM26 °FSunny.13 mph40%29.56 "Hg10 mi
11:53 AM25 °FSunny.22 mph40%29.54 "Hg10 mi
10:53 AM26 °FSunny.16 mph42%29.52 "Hg10 mi
9:53 AM29 °FScattered clouds.15 mph54%29.48 "Hg10 mi
8:53 AM31 °FMore clouds than sun.9 mph76%29.41 "Hg10 mi
7:53 AM30 °FMostly cloudy.8 mph75%29.37 "Hg10 mi
6:53 AM30 °FPassing clouds.6 mph72%29.34 "Hg10 mi
5:53 AM31 °FPassing clouds.10 mph69%29.32 "Hg10 mi
4:53 AM30 °FOvercast.9 mph75%29.28 "Hg10 mi
3:53 AM31 °FPassing clouds.8 mph69%29.26 "Hg10 mi
2:53 AM31 °FOvercast.15 mph73%29.22 "Hg10 mi
1:53 AM29 °FPassing clouds.12 mph72%29.19 "Hg10 mi
12:53 AM29 °FClear.10 mph72%29.15 "Hg10 mi
11:53 PM
Jan 24
28 °FOvercast.6 mph72%29.15 "Hg10 mi
10:53 PM27 °FPassing clouds.7 mph72%29.13 "Hg10 mi
9:53 PM26 °FOvercast.6 mph77%29.13 "Hg10 mi
8:53 PM25 °FOvercast.9 mph85%29.14 "Hg10 mi
7:53 PM25 °FOvercast.10 mph88%29.18 "Hg9 mi
6:53 PM24 °FLight snow. Ice fog.12 mph91%29.21 "Hg2 mi
5:55 PM24 °FLight snow. Ice fog.13 mph88%29.21 "Hg2 mi
5:02 PM24 °FLight snow. Ice fog.12 mph91%29.24 "Hg1 mi
Weather by CustomWeather, © 2014

See weather overviewHow to use our weather pages